TimeCDT,TemperatureF,Dew PointF,Humidity,Sea Level PressureIn,VisibilityMPH,Wind Direction,Wind SpeedMPH,Gust SpeedMPH,PrecipitationIn,Events,Conditions,WindDirDegrees,DateUTC
12:54 AM,28.0,21.0,75,29.91,10.0,Calm,Calm,-,N/A,,Clear,0,2014-04-09 05:54:00
1:54 AM,27.0,19.9,75,29.91,10.0,Calm,Calm,-,N/A,,Clear,0,2014-04-09 06:54:00
2:54 AM,28.9,19.9,69,29.91,10.0,Calm,Calm,-,N/A,,Clear,0,2014-04-09 07:54:00
3:54 AM,26.1,19.0,75,29.91,10.0,Calm,Calm,-,N/A,,Clear,0,2014-04-09 08:54:00
4:54 AM,26.1,19.0,75,29.91,10.0,Calm,Calm,-,N/A,,Clear,0,2014-04-09 09:54:00
5:54 AM,26.1,19.9,78,29.92,10.0,Calm,Calm,-,N/A,,Clear,0,2014-04-09 10:54:00
6:54 AM,28.9,21.9,75,29.93,10.0,Calm,Calm,-,N/A,,Clear,0,2014-04-09 11:54:00
7:54 AM,33.1,23.0,66,29.93,10.0,Calm,Calm,-,N/A,,Clear,0,2014-04-09 12:54:00
8:54 AM,37.0,23.0,57,29.93,10.0,West,3.5,-,N/A,,Mostly Cloudy,270,2014-04-09 13:54:00
9:54 AM,45.0,23.0,42,29.91,10.0,SSW,5.8,-,N/A,,Overcast,210,2014-04-09 14:54:00
10:54 AM,48.0,21.0,34,29.89,10.0,West,10.4,18.4,N/A,,Scattered Clouds,260,2014-04-09 15:54:00
11:54 AM,51.1,19.9,29,29.87,10.0,SSW,10.4,17.3,N/A,,Overcast,200,2014-04-09 16:54:00
12:54 PM,53.1,23.0,31,29.83,10.0,South,13.8,18.4,N/A,,Scattered Clouds,190,2014-04-09 17:54:00
1:54 PM,51.1,19.9,29,29.80,10.0,SSW,6.9,-,N/A,,Overcast,200,2014-04-09 18:54:00
2:54 PM,54.0,21.0,28,29.75,10.0,South,15.0,23.0,N/A,,Mostly Cloudy,190,2014-04-09 19:54:00
3:54 PM,55.9,23.0,28,29.72,10.0,SSW,16.1,23.0,N/A,,Overcast,200,2014-04-09 20:54:00
4:54 PM,55.9,24.1,29,29.69,10.0,South,11.5,19.6,N/A,,Clear,190,2014-04-09 21:54:00
5:54 PM,55.0,24.1,30,29.67,10.0,South,16.1,24.2,N/A,,Clear,190,2014-04-09 22:54:00
6:54 PM,53.1,25.0,34,29.66,10.0,South,9.2,-,N/A,,Partly Cloudy,180,2014-04-09 23:54:00
7:54 PM,50.0,25.0,38,29.64,10.0,South,6.9,-,N/A,,Clear,170,2014-04-10 00:54:00
8:54 PM,48.0,26.1,42,29.62,10.0,SSE,6.9,-,N/A,,Clear,160,2014-04-10 01:54:00
9:54 PM,46.9,26.1,44,29.59,10.0,South,8.1,-,N/A,,Clear,170,2014-04-10 02:54:00
10:54 PM,48.0,27.0,44,29.54,10.0,South,10.4,-,N/A,,Clear,180,2014-04-10 03:54:00
11:54 PM,46.0,28.9,51,29.51,10.0,South,8.1,-,N/A,,Clear,180,2014-04-10 04:54:00